EHI
68 67 66 73 86 94 94 90 86 82 79 75 70 66 59 44 37 43 45 33 22 23 24 24 29 31 30 30 32 32 28 31 35 30 20 17 23 29 35 39 37 30 26
66 69 70 74 82 88 88 85 82 78 76 73 66 61 53 39 32 38 41 30 19 15 16 18 20 21 20 21 25 26 26 28 33 31 18 10 14 21 28 35 35 32 32
64 68 72 73 74 77 79 80 79 76 73 70 62 54 47 36 32 38 41 33 18 10 9 11 12 11 10 11 15 17 20 24 30 29 18 8 7 11 17 24 28 31 37
56 60 65 67 67 68 74 80 81 78 74 70 64 58 53 46 45 47 46 38 26 16 13 13 13 12 9 9 10 12 15 19 22 23 19 12 9 6 7 11 16 23 30
49 52 56 59 60 62 70 77 80 80 76 73 71 69 66 63 60 58 53 45 35 29 25 23 23 20 14 10 10 11 12 12 14 16 17 13 9 6 3 3 6 12 16
41 42 44 46 45 47 54 64 72 75 75 74 75 75 76 75 72 67 61 53 45 41 39 37 36 30 21 17 15 14 12 10 9 12 14 12 9 7 4 2 2 5 7
30 29 28 27 26 26 32 43 54 58 61 64 68 72 76 77 75 72 68 62 54 50 49 49 48 39 28 23 19 17 14 12 10 9 10 10 9 7 5 3 2 2 3
17 16 14 11 10 11 14 22 30 34 37 41 47 54 59 62 66 69 70 67 61 54 54 57 55 45 33 27 24 21 17 14 12 8 7 8 8 8 6 5 2 1 2
7 7 5 3 2 3 4 6 11 15 18 20 24 30 35 39 45 51 56 58 56 52 52 56 56 49 39 32 28 24 20 17 14 10 7 6 8 9 9 7 4 2 1
2 2 1 1 1 0 0 1 2 4 6 7 9 11 15 19 24 28 33 38 40 41 42 45 48 46 40 34 28 22 19 18 16 14 9 5 6 8 8 9 9 5 2
1 1 1 2 1 0 0 0 0 0 1 1 2 2 4 7 10 12 15 20 23 24 26 29 32 32 30 27 24 19 16 16 16 13 9 4 3 4 4 7 8 7 5
1 0 1 1 1 0 0 0 0 0 0 0 0 0 0 1 2 3 6 8 11 12 14 16 16 15 16 16 15 14 14 14 14 11 6 3 1 2 2 3 4 6 6
0 0 0 0 0 0 0 0 0 0 0 0 0 0 0 0 0 0 1 2 3 5 7 7 7 6 6 7 7 8 10 12 11 8 4 2 2 2 2 1 2 4 5
0 0 0 0 0 0 0 0 0 0 0 0 0 0 0 0 0 0 0 0 0 2 2 2 3 4 3 3 3 3 4 6 7 6 4 2 2 2 1 1 2 2 2
0 0 0 0 0 0 0 0 0 0 0 0 0 0 0 0 0 0 0 0 0 0 0 0 0 2 2 1 0 0 1 1 3 4 3 1 1 1 0 0 1 1 0
0 0 0 0 0 0 0 0 0 0 0 0 0 0 0 0 0 0 0 0 0 0 0 0 0 0 1 0 0 0 0 0 1 3 2 1 0 0 0 0 0 0 0
0 0 0 0 0 0 0 0 0 0 0 0 0 0 0 0 0 0 0 0 0 0 0 0 0 0 0 0 0 0 0 0 0 1 2 1 0 0 0 0 0 0 0
0 0 0 0 0 0 0 0 0 0 0 0 0 0 0 0 0 0 0 0 0 0 0 0 0 0 0 0 0 0 0 0 0 1 1 0 0 0 0 0 0 0 0
0 0 0 0 0 0 0 0 0 0 0 0 0 0 0 0 0 0 0 0 0 0 0 0 0 0 0 0 0 0 0 0 0 0 0 0 0 0 0 0 0 0 0
0 0 0 0 0 0 0 0 0 0 0 0 0 0 0 0 0 0 0 0 0 0 0 0 0 0 0 0 0 0 0 0 0 0 0 0 0 0 0 0 0 0 0
0 0 0 0 1 1 1 1 0 0 0 0 0 0 0 0 0 0 0 0 0 0 0 0 0 0 0 0 0 0 0 0 0 0 0 0 0 0 0 0 0 0 0
0 0 0 1 2 2 2 1 0 0 0 0 0 0 0 0 0 0 0 0 0 0 0 0 0 0 0 0 0 0 0 0 0 0 0 0 0 0 0 0 0 0 0
0 0 0 0 1 1 1 0 0 0 0 0 0 0 0 0 0 0 0 0 0 0 0 0 0 0 0 0 0 0 0 0 0 0 0 0 0 0 0 0 0 0 0
0 0 0 0 0 0 0 0 0 0 0 0 0 0 0 0 0 0 0 0 0 0 0 0 0 0 0 0 0 0 0 0 0 0 0 0 0 0 0 0 0 0 0
0 0 0 0 0 0 0 0 0 0 0 0 0 0 0 0 0 0 0 0 0 0 0 0 0 0 0 0 0 0 0 0 0 0 0 0 0 0 0 0 0 0 0
0 0 0 0 0 0 0 0 0 0 0 0 0 0 0 0 0 0 0 0 0 0 0 0 0 0 0 0 0 0 0 0 0 0 0 0 0 0 0 0 0 0 0
Wind_Speed
5 6 5 6 8 8 8 7 6 5 3 2 2 2 2 2 2 2 3 2 1 1 2 3 2 3 3 4 4 4 5 5 4 4 5 5 7 7 6 6 6 7 7
5 8 7 6 7 7 7 7 5 4 3 2 1 1 0 1 0 2 3 1 0 2 3 1 3 3 3 5 5 4 4 4 4 3 4 4 4 6 8 6 7 8 6
8 8 9 8 9 6 4 5 4 3 2 2 2 1 1 2 1 1 2 2 0 2 2 3 3 3 4 4 4 4 5 4 4 4 4 3 4 3 3 5 5 5 5
10 9 9 8 8 6 5 5 4 3 2 1 2 2 2 2 1 1 1 1 1 3 3 3 3 3 4 5 5 4 3 4 5 4 4 5 4 4 4 3 4 5 5
7 9 9 9 8 7 6 5 5 4 3 3 3 3 4 4 3 3 2 1 3 4 5 4 2 3 4 5 4 5 5 4 5 5 4 5 5 6 5 6 4 3 3
8 11 10 10 8 8 8 8 7 6 5 5 5 4 5 5 6 5 5 4 3 4 5 4 2 3 4 4 4 5 6 5 6 5 5 5 4 4 5 6 5 4 3
10 11 11 10 9 10 10 10 9 9 8 8 7 6 6 6 6 6 6 5 4 4 4 3 2 3 4 4 5 5 6 6 6 6 5 5 5 5 5 5 5 5 3
10 10 10 9 9 10 10 10 9 8 8 7 7 6 7 6 6 7 7 7 6 6 5 4 3 4 5 6 5 5 6 6 6 7 6 5 6 5 5 5 5 4 3
9 8 8 8 8 8 8 8 8 7 7 7 7 6 6 6 7 7 7 6 6 7 7 7 6 6 6 6 5 5 6 6 6 6 7 6 5 5 5 5 5 5 4
7 7 6 6 6 6 5 6 6 5 5 6 6 7 7 6 7 7 8 7 8 8 8 8 8 7 7 7 6 6 6 6 6 5 6 6 5 5 4 5 4 5 5
7 6 6 6 6 6 7 6 6 6 5 5 5 5 6 6 6 6 7 8 8 8 9 9 9 8 8 8 7 8 8 7 7 6 7 7 6 5 4 4 4 5 5
7 8 8 8 8 8 8 8 7 7 6 6 5 5 6 6 6 7 7 8 9 9 9 9 9 10 9 8 8 9 9 7 7 6 6 7 6 6 4 4 5 4 5
8 8 8 8 8 8 8 8 8 8 8 7 7 6 6 7 7 7 7 8 8 9 9 9 10 10 10 9 9 9 8 7 6 6 6 6 5 5 4 4 4 3 4
9 9 7 7 7 7 8 9 9 8 8 7 8 8 7 8 8 8 8 8 8 9 9 9 9 10 10 10 9 9 8 7 6 5 5 4 4 4 3 3 3 3 4
13 9 7 6 7 8 8 8 8 8 8 8 8 8 8 8 8 8 8 8 8 11 9 9 9 10 10 10 8 7 9 6 5 4 3 2 1 1 2 3 3 5 5
12 10 10 10 9 9 9 9 8 8 8 8 9 8 9 9 9 9 9 8 8 9 9 9 10 11 11 9 8 7 7 6 5 4 3 2 1 3 4 5 4 5 7
12 13 12 10 8 9 8 9 8 8 8 9 10 9 9 9 9 11 10 8 8 9 9 9 10 10 10 10 9 9 7 7 5 5 4 3 3 4 5 7 9 7 7
16 15 13 13 11 10 9 9 10 9 9 9 10 10 9 10 9 9 9 8 8 8 9 9 10 10 11 11 10 9 8 7 6 6 5 4 5 5 6 7 8 7 7
15 14 14 15 11 11 10 10 10 11 11 12 10 10 10 10 9 10 9 8 8 9 9 10 10 10 9 10 10 9 7 6 6 6 6 7 6 8 9 9 9 9 8
14 14 15 15 12 10 9 10 13 12 12 12 11 10 10 10 10 10 9 9 8 9 11 10 10 10 9 9 11 11 6 6 5 5 6 9 9 10 10 9 10 10 9
15 14 14 12 10 10 9 11 13 12 12 12 11 10 9 10 10 10 9 8 9 10 10 11 10 9 10 9 11 11 7 6 7 7 7 7 12 11 10 9 9 12 11
17 17 12 10 9 9 10 11 11 11 11 11 11 11 10 12 12 8 8 8 8 10 10 10 10 8 7 7 8 10 10 7 6 7 7 9 14 12 11 9 13 15 11
16 15 15 12 10 10 10 12 11 11 11 11 12 11 11 10 10 10 10 8 7 8 8 8 7 6 4 3 5 7 8 8 4 5 12 15 15 12 10 13 15 11 6
15 15 16 15 13 11 12 12 12 12 12 12 11 10 10 10 10 8 8 7 7 7 7 6 6 5 3 1 1 2 3 5 5 6 14 17 14 9 11 11 9 5 5
15 14 14 14 15 13 13 14 12 10 12 12 12 12 11 10 9 9 7 8 7 7 7 6 4 3 3 1 2 2 3 4 5 9 8 9 8 8 8 7 5 4 5
16 16 16 16 15 15 14 13 12 11 11 11 11 9 9 8 8 8 8 9 9 9 9 8 6 4 2 4 4 2 3 4 11 11 9 9 9 9 8 7 6 5 6
Wind_Direction
112 108 95 98 109 113 115 121 128 132 144 162 187 208 206 224 218 176 117 95 337 345 292 289 314 286 277 284 281 274 275 268 255 256 267 257 245 239 234 230 237 244 240
107 97 93 85 87 102 112 116 122 147 162 140 161 195 285 277 222 82 113 130 26 347 296 339 315 308 308 288 274 272 269 274 264 256 277 275 259 237 236 228 228 236 233
70 76 76 70 72 70 84 109 123 136 132 146 208 215 198 262 263 165 159 144 151 277 293 302 293 307 297 294 306 292 282 280 277 245 240 259 264 296 259 243 241 232 229
54 59 68 67 67 63 67 74 89 85 82 65 356 323 280 281 286 235 208 135 242 248 252 255 272 289 292 294 291 308 309 292 284 269 242 244 271 283 290 274 255 240 234
59 62 61 63 56 51 50 48 58 59 37 16 351 325 315 321 329 340 308 245 250 236 233 228 235 266 276 285 299 300 287 281 279 282 283 273 264 249 254 273 271 261 246
73 64 56 51 46 39 40 39 38 36 19 11 360 342 324 320 318 317 307 290 269 247 231 222 209 245 264 284 290 284 281 273 273 274 272 270 264 258 249 257 264 260 251
66 63 55 49 42 37 32 35 34 31 20 15 4 353 338 322 303 295 294 292 286 278 255 235 212 242 260 267 267 270 270 270 270 268 263 260 261 260 259 262 266 267 265
67 61 56 49 42 39 33 31 29 27 16 13 3 357 353 338 329 332 325 313 304 301 313 296 256 246 254 263 264 269 269 264 261 268 267 265 263 255 246 247 251 260 252
65 56 50 43 37 35 34 26 22 20 11 4 352 349 358 347 337 328 320 316 316 310 315 313 295 275 262 259 263 264 266 269 266 266 267 260 260 256 249 241 233 233 241
49 47 41 34 28 21 22 19 10 6 360 354 349 347 346 339 335 330 327 322 319 317 313 304 296 286 274 264 258 261 260 261 261 258 262 265 263 258 251 242 235 229 227
17 15 13 5 358 359 356 356 350 345 340 334 330 327 326 328 326 320 320 320 314 311 306 303 295 287 279 271 260 258 262 262 263 265 264 263 260 257 253 242 233 229 216
351 350 348 346 343 342 340 334 329 322 319 318 313 309 309 309 308 307 310 309 307 305 300 297 295 288 282 273 266 262 263 263 264 266 269 269 267 256 250 240 229 222 205
334 330 331 330 325 323 319 310 303 299 296 295 292 288 286 286 285 286 288 290 292 295 297 295 291 289 285 279 271 264 260 260 263 266 266 266 264 261 248 231 222 207 190
319 312 309 304 300 296 291 291 290 289 287 283 283 280 276 275 274 275 275 278 281 285 287 290 289 287 283 278 273 268 260 256 258 260 265 268 261 253 240 216 201 177 159
308 306 306 304 300 296 292 290 288 286 283 281 279 276 275 275 274 274 274 275 279 286 288 291 293 290 285 275 275 277 265 251 246 248 258 281 294 261 218 197 179 164 154
319 324 317 312 310 308 303 299 295 291 286 283 282 281 278 276 273 273 272 272 276 283 287 290 291 289 288 296 295 284 280 260 237 223 203 191 156 116 108 120 137 160 164
330 319 315 312 309 306 300 295 295 290 286 282 284 283 281 282 280 282 281 279 283 284 285 286 285 283 282 276 268 264 269 255 228 207 199 197 157 143 124 110 100 96 115
320 317 315 312 305 301 296 292 295 292 289 287 286 285 280 280 281 279 278 280 283 284 283 282 282 279 278 269 258 253 254 248 220 201 187 170 162 149 138 122 104 91 84
316 313 310 306 302 297 294 292 292 290 287 287 285 285 282 282 281 281 280 281 279 281 280 280 278 277 272 260 250 240 246 235 217 191 173 165 151 143 134 124 116 106 93
314 309 305 302 297 293 291 290 292 290 288 289 286 283 277 278 281 281 278 280 280 279 279 277 276 277 274 259 242 228 237 224 204 178 158 154 146 145 139 135 128 119 115
308 304 301 298 295 293 288 287 290 289 288 287 282 280 278 278 275 271 270 271 274 276 277 277 275 274 271 258 238 221 227 220 192 172 158 150 146 145 141 136 128 130 127
308 307 302 296 291 289 287 286 286 286 285 285 284 282 278 280 283 276 274 271 269 273 272 270 271 270 263 249 236 221 217 234 198 171 155 149 150 143 137 128 131 134 133
309 309 308 304 301 298 295 294 292 289 288 286 284 282 282 280 279 275 274 272 267 268 271 273 275 275 263 235 226 214 207 214 215 166 146 146 147 137 131 138 143 145 143
315 314 311 307 306 306 303 298 295 293 292 289 286 282 282 280 278 272 270 269 268 268 270 273 276 286 274 211 159 184 190 195 182 149 139 141 144 140 136 147 157 167 153
316 316 314 312 309 306 302 300 302 302 299 295 291 287 281 278 276 272 267 268 264 261 264 272 276 276 282 240 136 182 191 177 159 140 139 145 148 147 149 162 174 168 144
322 319 315 312 310 307 303 301 298 295 292 289 286 284 283 280 276 273 275 263 256 259 247 241 248 258 223 185 165 181 161 145 148 144 147 151 156 155 157 164 165 157 140